FW6321 Weather Reports


time (UTC)temp
C
wind
direction
speed
KPH
gust
KPH
rain 1hr
cm
rain 24hr
cm
rain mn
cm
humidity
%
barometer
mb
20260905090659 19 204 19.3 33.8 0.00 0.23 0.00 73 1021.4
20260905090200 19 235 19.3 40.2 0.00 0.23 0.00 73 1021.3
20260905085700 18 242 17.7 40.2 0.00 0.23 0.00 74 1021.4
20260905085201 18 290 14.5 37.0 0.00 0.23 0.00 76 1021.2
20260905084701 18 255 12.9 29.0 0.00 0.23 0.00 76 1021.1
20260905084153 18 231 11.3 22.5 0.00 0.23 0.00 77 1021.0
20260905083652 18 246 14.5 32.2 0.00 0.23 0.00 76 1021.0
20260905083148 18 275 19.3 32.2 0.00 0.23 0.00 75 1021.0
20260905082651 18 229 17.7 30.6 0.00 0.23 0.00 76 1020.8
20260905082151 18 240 16.1 27.4 0.00 0.23 0.00 77 1020.7
20260905082130 18 230 14.5 27.4 0.00 0.23 0.00 77 1020.6
20260905081634 18 242 14.5 27.4 0.00 0.23 0.00 79 1020.5
20260905081148 18 227 14.5 27.4 0.00 0.23 0.00 78 1020.5
20260905080150 18 239 12.9 27.4 0.00 0.23 0.00 79 1020.4
20260905075650 18 208 11.3 25.7 0.00 0.23 0.00 80 1020.4
20260905075150 18 241 12.9 25.7 0.00 0.23 0.00 80 1020.4
20260905075137 18 204 14.5 25.7 0.00 0.23 0.00 80 1020.2
20260905074147 18 211 14.5 30.6 0.00 0.23 0.00 81 1020.2
20260905073648 17 260 14.5 30.6 0.00 0.23 0.00 81 1019.9
20260905073151 17 233 16.1 30.6 0.00 0.23 0.00 82 1020.0
20260905073132 17 230 16.1 30.6 0.00 0.23 0.00 82 1020.0
20260905072146 17 240 12.9 25.7 0.00 0.23 0.00 83 1019.9
20260905071648 17 241 11.3 22.5 0.00 0.23 0.00 84 1019.8
20260905071149 17 237 11.3 19.3 0.00 0.23 0.00 85 1019.7
20260905070650 17 273 11.3 20.9 0.00 0.23 0.00 85 1019.7
20260905070235 17 177 9.7 19.3 0.00 0.23 0.00 86 1019.6
20260905070203 17 233 9.7 20.9 0.00 0.23 0.00 86 1019.7
20260905065148 17 239 8.0 19.3 0.00 0.23 0.00 86 1019.7
20260905065136 16 253 8.0 16.1 0.00 0.23 0.00 87 1019.5
20260905064147 16 218 6.4 16.1 0.00 0.23 0.00 87 1019.5
20260905063849 16 216 8.0 14.5 0.00 0.23 0.00 87 1019.5
20260905063353 16 223 8.0 14.5 0.00 0.23 0.00 88 1019.5
20260905062151 16 208 6.4 14.5 0.00 0.23 0.00 89 1019.3
20260905061646 16 211 8.0 16.1 0.00 0.23 0.00 90 1019.2
20260905061144 16 229 6.4 16.1 0.00 0.23 0.00 90 1019.2
20260905060641 15 185 6.4 16.1 0.00 0.23 0.00 91 1019.2
20260905060140 15 229 6.4 16.1 0.00 0.23 0.00 91 1019.2
20260905055641 15 232 6.4 12.9 0.00 0.23 0.00 91 1019.1
20260905055142 15 214 4.8 12.9 0.00 0.23 0.00 91 1019.1
20260905054640 15 210 4.8 12.9 0.00 0.23 0.00 91 1019.1
20260905054139 15 247 4.8 12.9 0.00 0.23 0.00 92 1019.0
20260905053639 15 189 6.4 12.9 0.00 0.23 0.00 91 1018.9
20260905053140 14 200 4.8 12.9 0.00 0.23 0.00 91 1018.9
20260905052638 14 221 4.8 12.9 0.00 0.23 0.00 91 1018.9
20260905052136 14 197 4.8 9.7 0.00 0.23 0.00 91 1018.8
20260905051638 14 222 4.8 11.3 0.00 0.23 0.00 91 1018.7
20260905051135 14 219 4.8 11.3 0.00 0.23 0.00 91 1018.7
20260905050637 14 209 4.8 9.7 0.00 0.23 0.00 91 1018.6
20260905050133 14 212 4.8 11.3 0.00 0.23 0.00 91 1018.6
20260905045634 14 215 4.8 14.5 0.00 0.23 0.00 91 1018.5
20260905045609 14 234 6.4 14.5 0.00 0.23 0.00 91 1018.5
20260905044631 14 220 4.8 12.9 0.00 0.23 0.00 91 1018.5
20260905044130 14 224 4.8 12.9 0.00 0.23 0.00 91 1018.4
20260905043630 14 242 4.8 12.9 0.00 0.23 0.00 90 1018.3
20260905043135 14 225 4.8 12.9 0.00 0.23 0.00 90 1018.3
20260905042631 14 245 4.8 9.7 0.00 0.23 0.00 90 1018.3
20260905042130 14 232 4.8 11.3 0.00 0.23 0.00 90 1018.3
20260905041634 14 233 4.8 11.3 0.00 0.23 0.00 90 1018.3
20260905041132 14 233 4.8 9.7 0.00 0.23 0.00 90 1018.3
20260905040833 14 229 4.8 12.9 0.00 0.23 0.00 90 1018.3
20260905040337 14 205 4.8 12.9 0.00 0.23 0.00 89 1018.2
20260905035130 13 202 4.8 11.3 0.00 0.23 0.00 89 1018.2
20260905035119 13 221 4.8 11.3 0.00 0.23 0.00 88 1018.1
20260905034132 13 220 3.2 8.0 0.00 0.23 0.00 88 1018.1
20260905034120 13 201 3.2 6.4 0.00 0.23 0.00 88 1018.1
20260905033132 13 208 3.2 6.4 0.00 0.23 0.00 87 1018.1
20260905032632 13 207 3.2 8.0 0.00 0.23 0.00 87 1018.2
20260905032131 14 208 3.2 8.0 0.00 0.23 0.00 87 1018.0
20260905031628 14 203 3.2 6.4 0.00 0.23 0.00 86 1018.0
20260905031610 14 208 3.2 6.4 0.00 0.23 0.00 86 1017.9
20260905031106 14 224 3.2 6.4 0.00 0.23 0.00 86 1017.8
20260905030125 14 216 3.2 6.4 0.00 0.23 0.00 86 1017.8
20260905025625 15 222 3.2 9.7 0.00 0.23 0.00 86 1017.6
20260905025123 15 237 4.8 9.7 0.00 0.23 0.00 86 1017.6
20260905024623 15 217 4.8 9.7 0.00 0.23 0.00 85 1017.6
20260905024122 15 224 4.8 11.3 0.00 0.23 0.00 85 1017.6
20260905023622 15 236 4.8 11.3 0.00 0.23 0.00 85 1017.6
20260905023123 15 233 4.8 9.7 0.00 0.23 0.00 85 1017.5
20260905022624 15 229 6.4 12.9 0.00 0.23 0.00 85 1017.6
20260905022601 15 226 8.0 14.5 0.00 0.23 0.00 85 1017.6
20260905021620 15 241 6.4 14.5 0.00 0.23 0.00 86 1017.6
20260905021123 15 227 6.4 12.9 0.00 0.23 0.00 86 1017.6
20260905020623 15 223 4.8 12.9 0.00 0.23 0.00 86 1017.5
20260905020618 15 206 4.8 11.3 0.00 0.23 0.00 86 1017.5
20260905020108 15 235 4.8 11.3 0.00 0.23 0.00 86 1017.5
20260905015119 15 227 4.8 12.9 0.00 0.23 0.00 86 1017.5
20260905015108 15 246 4.8 12.9 0.00 0.23 0.00 86 1017.5
20260905014115 15 244 4.8 11.3 0.00 0.23 0.00 86 1017.5
20260905014101 15 246 4.8 11.3 0.00 0.23 0.00 86 1017.3
20260905013113 15 216 4.8 12.9 0.00 0.23 0.00 86 1017.4
20260905012612 15 235 4.8 12.9 0.00 0.23 0.00 85 1017.4
20260905012115 15 207 4.8 11.3 0.00 0.23 0.00 85 1017.3
20260905011614 15 218 4.8 8.0 0.00 0.23 0.00 85 1017.3
20260905011113 15 224 3.2 8.0 0.00 0.23 0.00 85 1017.4
20260905010615 15 229 3.2 6.4 0.00 0.23 0.00 84 1017.4
20260905010113 15 214 3.2 8.0 0.00 0.23 0.00 84 1017.2
20260905005614 15 218 3.2 8.0 0.00 0.23 0.00 84 1017.3
20260905005113 15 217 4.8 9.7 0.00 0.23 0.00 84 1017.2
20260905004613 15 238 4.8 14.5 0.00 0.23 0.00 84 1017.3
20260905004552 15 238 4.8 14.5 0.00 0.23 0.00 84 1017.3
20260905003610 15 211 4.8 11.3 0.00 0.23 0.00 84 1017.2
20260905003113 15 232 4.8 11.3 0.00 0.23 0.00 84 1017.3
20260905002611 15 241 4.8 11.3 0.00 0.23 0.00 84 1017.2
20260905002115 15 240 4.8 11.3 0.00 0.23 0.00 84 1017.3
20260905001610 15 199 4.8 9.7 0.00 0.23 0.00 84 1017.3
20260905001558 15 221 4.8 9.7 0.00 0.23 0.00 83 1017.3
20260905000607 15 195 3.2 9.7 0.00 0.23 0.00 83 1017.3
20260905000104 15 210 4.8 9.7 0.00 0.23 0.00 83 1017.3
20260904235604 15 218 4.8 11.3 0.00 0.23 0.00 83 1017.1
20260904235105 15 206 6.4 11.3 0.00 0.23 0.00 83 1017.1
20260904234602 15 220 6.4 11.3 0.00 0.23 0.00 83 1017.0
20260904234102 15 239 4.8 11.3 0.00 0.23 0.00 82 1017.0
20260904233608 15 238 4.8 9.7 0.00 0.23 0.00 82 1016.9
20260904233104 16 235 4.8 11.3 0.00 0.23 0.00 82 1017.0
20260904232605 16 230 4.8 11.3 0.00 0.23 0.00 81 1017.0
20260904232106 16 200 3.2 8.0 0.00 0.23 0.00 81 1017.0
20260904231602 16 212 4.8 12.9 0.00 0.23 0.00 81 1016.9
20260904231102 16 245 4.8 12.9 0.00 0.23 0.00 80 1016.9
20260904231033 16 238 4.8 12.9 0.00 0.23 0.00 79 1016.9
20260904231028 16 229 4.8 12.9 0.00 0.23 0.00 79 1016.9
20260904230759 16 224 4.8 12.9 0.00 0.23 0.00 80 1016.9
20260904230525 16 212 4.8 12.9 0.00 0.23 0.00 79 1016.9
20260904230303 16 206 4.8 12.9 0.00 0.23 0.00 80 1016.9
20260904224106 16 241 6.4 12.9 0.00 0.23 0.00 79 1016.9
20260904223609 17 228 6.4 11.3 0.00 0.23 0.00 78 1016.9
20260904223544 17 217 6.4 14.5 0.00 0.23 0.00 78 1016.8
20260904222603 17 220 8.0 17.7 0.00 0.23 0.00 78 1016.9
20260904222102 17 231 8.0 17.7 0.00 0.23 0.00 77 1016.8
20260904221608 17 247 8.0 16.1 0.00 0.23 0.00 77 1016.8
20260904221103 17 216 6.4 12.9 0.00 0.23 0.00 77 1016.8
20260904220604 17 227 6.4 16.1 0.00 0.23 0.00 76 1016.8
20260904215602 17 249 8.0 16.1 0.00 0.23 0.23 76 1016.7
20260904215105 17 237 8.0 17.7 0.00 0.23 0.23 76 1016.6
20260904214604 17 243 9.7 17.7 0.00 0.23 0.23 75 1016.6
20260904214104 17 233 9.7 17.7 0.00 0.23 0.23 75 1016.5
20260904213603 17 229 11.3 19.3 0.00 0.23 0.23 75 1016.4
20260904213107 17 227 12.9 19.3 0.00 0.23 0.23 75 1016.5
20260904213048 17 241 12.9 24.1 0.00 0.23 0.23 74 1016.4
20260904212103 17 229 11.3 24.1 0.00 0.23 0.23 74 1016.2
20260904211602 17 233 9.7 20.9 0.00 0.23 0.23 74 1016.3
20260904211105 18 274 9.7 17.7 0.00 0.23 0.23 74 1016.3
20260904210608 18 231 9.7 19.3 0.00 0.23 0.23 74 1016.3
20260904210601 18 231 11.3 19.3 0.00 0.23 0.23 73 1016.2
20260904205608 18 239 11.3 24.1 0.00 0.23 0.23 74 1016.3
20260904205602 18 239 11.3 24.1 0.00 0.23 0.23 74 1016.2
20260904204602 18 229 11.3 24.1 0.00 0.23 0.23 74 1016.3
20260904204106 18 247 9.7 24.1 0.00 0.23 0.23 75 1016.3
20260904204055 18 233 9.7 17.7 0.00 0.23 0.23 75 1016.1
20260904203105 18 231 9.7 17.7 0.00 0.23 0.23 76 1016.1
20260904202604 18 230 11.3 19.3 0.00 0.23 0.23 76 1016.1
20260904202116 18 237 9.7 20.9 0.00 0.23 0.23 76 1015.9
20260904202106 18 245 11.3 19.3 0.00 0.23 0.23 76 1016.0
20260904201104 18 233 8.0 20.9 0.00 0.23 0.23 76 1016.1
20260904201045 18 229 8.0 17.7 0.00 0.23 0.23 76 1016.0
20260904200104 18 254 8.0 17.7 0.00 0.23 0.23 76 1015.9
20260904195603 18 242 8.0 16.1 0.00 0.23 0.23 76 1015.8
20260904195104 18 210 8.0 14.5 0.00 0.23 0.23 76 1015.7
20260904194604 18 262 8.0 14.5 0.00 0.23 0.23 76 1015.7
20260904194105 18 229 6.4 16.1 0.00 0.23 0.23 75 1015.6
20260904193602 18 239 6.4 16.1 0.00 0.23 0.23 75 1015.5
20260904193102 18 239 4.8 12.9 0.00 0.23 0.23 75 1015.6
20260904193051 18 236 6.4 14.5 0.00 0.23 0.23 74 1015.5
20260904192102 18 226 8.0 16.1 0.00 0.23 0.23 74 1015.4
20260904191609 18 232 9.7 17.7 0.00 0.23 0.23 74 1015.3
20260904191105 18 230 11.3 20.9 0.00 0.23 0.23 74 1015.4
20260904191052 18 241 12.9 24.1 0.00 0.23 0.23 74 1015.3
20260904190110 18 237 11.3 29.0 0.00 0.23 0.23 74 1015.2
20260904185604 18 247 9.7 29.0 0.00 0.23 0.23 75 1015.1
20260904185105 18 252 8.0 17.7 0.00 0.23 0.23 76 1015.0
20260904184608 18 249 8.0 17.7 0.00 0.23 0.23 76 1014.8
20260904184102 18 266 11.3 25.7 0.00 0.23 0.23 76 1015.0
20260904183604 18 272 11.3 25.7 0.00 0.23 0.23 76 1014.9
20260904183253 18 259 9.7 20.9 0.00 0.23 0.23 76 1014.7
20260904183150 18 232 9.7 24.1 0.00 0.23 0.23 76 1014.8
20260904182641 18 260 9.7 20.9 0.00 0.23 0.23 76 1014.7
20260904181604 18 229 12.9 24.1 0.00 0.23 0.23 76 1014.6
20260904181105 18 241 12.9 24.1 0.00 0.23 0.23 76 1014.5
20260904180603 18 249 12.9 25.7 0.00 0.23 0.23 76 1014.6
20260904180134 18 266 11.3 19.3 0.00 0.23 0.23 75 1014.5
20260904180114 18 242 11.3 25.7 0.00 0.23 0.23 76 1014.5
20260904175105 19 282 12.9 25.7 0.00 0.23 0.23 75 1014.5
20260904174607 19 235 12.9 29.0 0.00 0.23 0.23 75 1014.6
20260904174551 19 225 12.9 29.0 0.00 0.23 0.23 74 1014.5
20260904173604 19 233 14.5 27.4 0.00 0.23 0.23 74 1014.3
20260904173101 19 239 14.5 24.1 0.00 0.23 0.23 74 1014.2
20260904172603 19 239 14.5 30.6 0.00 0.23 0.23 74 1014.3
20260904172103 19 219 14.5 30.6 0.00 0.23 0.23 74 1014.1
20260904171602 19 248 14.5 27.4 0.00 0.23 0.23 74 1014.0
20260904171102 19 224 16.1 30.6 0.00 0.23 0.23 74 1014.2
20260904170604 19 254 17.7 30.6 0.00 0.23 0.23 74 1014.0
20260904170104 19 256 19.3 37.0 0.00 0.23 0.23 74 1014.1
20260904165602 19 233 17.7 37.0 0.00 0.23 0.23 74 1013.8
20260904165103 19 254 16.1 30.6 0.00 0.23 0.23 75 1013.8
20260904164604 19 232 16.1 32.2 0.00 0.23 0.23 76 1013.6
20260904164553 19 216 16.1 32.2 0.00 0.23 0.23 77 1013.6
20260904163602 20 273 16.1 37.0 0.00 0.23 0.23 78 1013.8
20260904163106 20 261 17.7 37.0 0.00 0.23 0.23 78 1013.7
20260904162628 20 274 14.5 37.0 0.00 0.23 0.23 79 1013.4
20260904162607 20 245 14.5 37.0 0.00 0.23 0.23 79 1013.6
20260904161606 20 245 17.7 37.0 0.00 0.23 0.23 78 1013.6
20260904161559 20 251 14.5 37.0 0.00 0.23 0.23 78 1013.3
20260904160604 20 237 16.1 35.4 0.00 0.23 0.23 78 1013.3
20260904160104 20 242 19.3 35.4 0.00 0.23 0.23 77 1013.5
20260904155603 20 262 19.3 37.0 0.00 0.23 0.23 77 1013.4
20260904155551 20 231 14.5 32.2 0.00 0.23 0.23 78 1013.4
20260904155308 20 226 19.3 37.0 0.00 0.23 0.23 77 1013.5
20260904154105 20 250 14.5 27.4 0.00 0.23 0.23 79 1013.2
20260904153602 20 256 17.7 32.2 0.00 0.23 0.23 79 1013.4
20260904153104 20 236 17.7 32.2 0.00 0.23 0.23 79 1013.4
20260904152559 20 191 17.7 41.8 0.00 0.23 0.23 79 1013.4
20260904152100 20 243 19.3 41.8 0.00 0.23 0.23 78 1013.3
20260904151558 20 234 19.3 46.7 0.00 0.23 0.23 78 1013.4
20260904151101 20 246 20.9 46.7 0.00 0.23 0.23 78 1013.4
20260904150558 20 256 22.5 43.5 0.00 0.23 0.23 79 1013.2
20260904150059 20 233 22.5 45.1 0.00 0.23 0.23 79 1013.2
20260904150047 20 245 17.7 37.0 0.00 0.23 0.23 82 1013.0
20260904145807 20 240 19.3 45.1 0.00 0.23 0.23 80 1013.2
20260904144602 20 236 16.1 27.4 0.00 0.23 0.23 84 1012.9
20260904144059 20 215 16.1 25.7 0.00 0.23 0.23 85 1012.9
20260904143600 20 233 17.7 32.2 0.00 0.23 0.23 86 1013.0
20260904143054 20 242 17.7 32.2 0.00 0.23 0.23 86 1013.1
20260904142555 19 229 17.7 32.2 0.00 0.23 0.23 88 1012.9
20260904142057 19 244 16.1 33.8 0.00 0.23 0.23 88 1012.7
20260904141555 19 209 12.9 33.8 0.00 0.23 0.23 90 1012.6
20260904141054 19 258 12.9 25.7 0.00 0.23 0.23 90 1012.6
20260904140555 19 185 12.9 29.0 0.00 0.23 0.23 90 1012.7
20260904140056 19 229 14.5 29.0 0.00 0.23 0.23 91 1012.8
20260904135557 19 233 14.5 22.5 0.00 0.23 0.23 91 1012.7
20260904135110 18 214 17.7 33.8 0.00 0.23 0.23 91 1012.4
20260904135055 18 205 16.1 33.8 0.00 0.23 0.23 91 1012.6
20260904134054 18 229 17.7 33.8 0.00 0.23 0.23 91 1012.3
20260904133554 18 255 17.7 43.5 0.00 0.23 0.23 92 1012.4
20260904133055 18 235 16.1 43.5 0.00 0.23 0.23 92 1012.1
20260904132554 18 238 16.1 33.8 0.00 0.23 0.23 93 1012.2
20260904132053 18 214 17.7 27.4 0.00 0.23 0.23 94 1012.1
20260904131554 18 228 16.1 32.2 0.00 0.23 0.23 94 1012.2
20260904131546 18 259 16.1 32.2 0.03 0.23 0.23 94 1012.2
20260904131040 18 230 14.5 29.0 0.03 0.23 0.23 95 1012.0
20260904130051 18 222 12.9 27.4 0.03 0.23 0.23 95 1012.2
20260904125553 18 242 11.3 22.5 0.03 0.23 0.23 95 1012.1
20260904125054 18 256 11.3 22.5 0.05 0.23 0.23 95 1012.1
20260904124555 18 262 14.5 30.6 0.18 0.23 0.23 95 1012.1
20260904124053 18 231 17.7 30.6 0.18 0.23 0.23 95 1011.9
20260904123553 18 239 17.7 32.2 0.18 0.23 0.23 95 1012.0
20260904123056 18 200 19.3 37.0 0.18 0.23 0.23 95 1011.9
20260904122555 18 256 19.3 37.0 0.20 0.23 0.23 94 1011.9
20260904122054 18 231 17.7 38.6 0.23 0.23 0.23 95 1011.8
20260904121552 18 288 19.3 38.6 0.23 0.23 0.20 94 1011.8
20260904121055 18 231 17.7 32.2 0.20 0.20 0.20 94 1011.8
20260904121043 18 250 14.5 32.2 0.20 0.20 0.20 94 1011.7
20260904120052 18 247 14.5 30.6 0.20 0.20 0.20 93 1011.6
20260904115548 19 281 16.1 30.6 0.20 0.20 0.20 92 1011.6
20260904115049 19 281 12.9 25.7 0.18 0.18 0.15 91 1011.5
20260904114550 20 278 12.9 35.4 0.05 0.05 0.05 91 1011.2
20260904114049 20 274 17.7 35.4 0.05 0.05 0.05 92 1011.3
20260904113553 20 229 19.3 41.8 0.05 0.05 0.05 92 1011.0
20260904113542 21 239 20.9 41.8 0.05 0.05 0.05 91 1011.1
20260904112549 21 225 20.9 40.2 0.03 0.03 0.03 90 1011.1
20260904112048 21 237 24.1 56.3 0.00 0.00 0.00 89 1011.0
20260904111548 21 249 24.1 56.3 0.00 0.00 0.00 89 1011.0
20260904111541 21 218 22.5 51.5 0.00 0.03 0.00 87 1010.8
20260904110600 21 139 24.1 49.9 0.00 0.03 0.00 86 1010.9
20260904110055 22 277 25.7 53.1 0.00 0.03 0.00 84 1010.8
20260904110044 22 179 24.1 49.9 0.00 0.03 0.00 85 1011.0
20260904105037 22 48 25.7 53.1 0.00 0.03 0.00 84 1010.9
20260904104535 22 239 25.7 48.3 0.00 0.03 0.00 85 1011.0
20260904104033 22 229 24.1 48.3 0.00 0.03 0.00 85 1011.0
20260904103535 22 238 25.7 48.3 0.00 0.03 0.00 85 1010.9
20260904103031 21 206 27.4 56.3 0.00 0.03 0.00 85 1010.9
20260904102532 21 194 25.7 56.3 0.00 0.03 0.00 85 1010.9
20260904102035 21 229 25.7 49.9 0.00 0.03 0.00 85 1011.0
20260904101552 21 241 27.4 53.1 0.00 0.03 0.00 87 1011.3
20260904101533 21 218 25.7 45.1 0.00 0.03 0.00 86 1011.0
20260904100530 21 214 25.7 54.7 0.00 0.03 0.00 87 1011.0
20260904100033 21 253 20.9 54.7 0.00 0.03 0.00 88 1011.0
20260904095531 21 263 17.7 40.2 0.00 0.03 0.00 88 1011.0
20260904095033 21 216 17.7 33.8 0.00 0.03 0.00 88 1011.0
20260904094532 21 183 17.7 33.8 0.00 0.03 0.00 88 1010.9
20260904094036 21 197 17.7 35.4 0.00 0.03 0.00 88 1011.0
20260904094025 21 216 17.7 35.4 0.00 0.03 0.00 88 1011.0
20260904093527 21 241 16.1 33.8 0.00 0.03 0.00 89 1011.0
20260904092536 21 210 16.1 30.6 0.00 0.03 0.00 89 1011.1
20260904092030 21 236 16.1 30.6 0.00 0.03 0.00 89 1011.1
20260904091530 21 214 14.5 40.2 0.00 0.03 0.00 89 1011.1
20260904091033 21 256 17.7 40.2 0.00 0.03 0.00 90 1011.1